contact:dominique.lefevre@mio.osupytheas.fr, maurice.libes@osupytheas.fr
Project:EMSO Ligure-ouest http://www.emso-fr.org/EMSO-France
Sensor Aquadopp, line 13 Serial AQD14315 
DOI : "https://doi.org/10.17882/74513; https://doi.org/10.17882/83244" 
Title:EMSO Ligure Ouest : Data ligne ALBATROSS capteur AQUADOPP - deploiement 2021
Id,Date,Profondeur,Latitude,Longitude,X_East,Y_North,Z_Up,Amplitude_X,Amplitude_Y,Amplitude_Z,Batterie,SoundSpeed,Heading,Pitch,Roll,Pressure,Temperature,Speed,Direction
, , m, degrees North, degrees East, m.s-1, m.s-1,m.s-1, 1, 1, 1, Volt, m.s-1, degree, degree, degree, dbar, degree_C, m.s-1, degree
13,2022-07-11T23:30:00,2400.0,42.79,6.0312,-0.055,0.03,0.006,66.0,63.0,64.0,13.3,1504.9,354.3,-0.7,-0.6,2393.084,13.34,0.062,298.6
13,2022-07-12T00:00:00,2400.0,42.79,6.0312,-0.031,0.019,-0.001,69.0,61.0,65.0,13.3,1504.9,351.3,-0.4,-0.8,2393.096,13.34,0.036,301.5
13,2022-07-12T00:30:00,2400.0,42.79,6.0312,-0.048,0.035,0.0,65.0,60.0,63.0,13.3,1504.9,348.4,-0.3,-0.6,2393.06,13.34,0.059,306.1
13,2022-07-12T01:00:00,2400.0,42.79,6.0312,-0.031,0.035,0.01,64.0,59.0,61.0,13.3,1504.9,349.1,-0.3,-0.7,2393.079,13.34,0.046,318.5
13,2022-07-12T01:30:00,2400.0,42.79,6.0312,-0.047,0.019,0.001,66.0,58.0,63.0,13.3,1504.9,351.2,-0.2,-0.6,2393.073,13.34,0.05,292.0
13,2022-07-12T02:00:00,2400.0,42.79,6.0312,-0.042,0.031,0.006,66.0,62.0,63.0,13.3,1504.9,355.1,0.0,-0.7,2393.091,13.34,0.052,306.4
13,2022-07-12T02:30:00,2400.0,42.79,6.0312,-0.048,0.025,-0.015,70.0,61.0,63.0,13.3,1504.9,351.0,-0.3,-0.7,2393.02,13.34,0.054,297.5
13,2022-07-12T03:00:00,2400.0,42.79,6.0312,-0.02,0.027,-0.02,68.0,65.0,65.0,13.3,1504.9,356.9,-0.2,-0.6,2393.109,13.34,0.033,323.5
13,2022-07-12T03:30:00,2400.0,42.79,6.0312,-0.042,0.034,0.0,71.0,65.0,66.0,13.3,1504.9,350.8,0.4,-0.6,2393.151,13.34,0.054,309.0
13,2022-07-12T04:00:00,2400.0,42.79,6.0312,-0.041,0.042,-0.038,69.0,63.0,65.0,13.3,1504.9,354.2,-0.5,-0.7,2393.14,13.34,0.058,315.7
13,2022-07-12T04:30:00,2400.0,42.79,6.0312,-0.041,0.037,-0.018,70.0,64.0,66.0,13.3,1504.9,356.5,-0.4,-0.6,2393.194,13.34,0.055,312.1
13,2022-07-12T05:00:00,2400.0,42.79,6.0312,-0.04,0.041,-0.007,71.0,61.0,65.0,13.3,1504.9,351.5,-0.2,-0.6,2393.164,13.34,0.057,315.7
13,2022-07-12T05:30:00,2400.0,42.79,6.0312,-0.042,0.043,0.036,67.0,63.0,64.0,13.3,1504.9,351.5,-0.2,-0.6,2393.187,13.34,0.06,315.7
13,2022-07-12T06:00:00,2400.0,42.79,6.0312,-0.035,0.036,0.016,63.0,59.0,57.0,13.3,1504.9,352.0,-0.3,-0.7,2393.158,13.34,0.05,315.8
13,2022-07-12T06:30:00,2400.0,42.79,6.0312,-0.029,0.027,-0.008,63.0,59.0,60.0,13.3,1504.9,355.5,-0.4,-0.6,2393.146,13.34,0.039,313.0
13,2022-07-12T07:00:00,2400.0,42.79,6.0312,-0.035,0.021,0.018,63.0,55.0,60.0,13.3,1504.9,354.9,-0.4,-0.6,2393.172,13.34,0.04,301.0
13,2022-07-12T07:30:00,2400.0,42.79,6.0312,-0.035,0.028,-0.016,65.0,58.0,58.0,13.3,1504.9,353.6,-0.4,-0.6,2393.138,13.34,0.044,308.7
13,2022-07-12T08:00:00,2400.0,42.79,6.0312,-0.034,0.043,-0.009,63.0,58.0,61.0,13.3,1504.9,350.9,-0.3,-0.7,2393.164,13.34,0.054,321.7
13,2022-07-12T08:30:00,2400.0,42.79,6.0312,-0.043,0.02,-0.014,67.0,58.0,60.0,13.3,1504.9,350.6,-0.4,-0.8,2393.124,13.34,0.047,294.9
13,2022-07-12T09:00:00,2400.0,42.79,6.0312,-0.025,0.039,0.003,60.0,58.0,59.0,13.3,1504.9,349.7,-0.3,-0.8,2393.098,13.34,0.046,327.3
13,2022-07-12T09:30:00,2400.0,42.79,6.0312,-0.027,0.024,0.005,66.0,57.0,63.0,13.3,1504.9,349.9,-0.5,-0.8,2393.061,13.34,0.036,311.6
13,2022-07-12T10:00:00,2400.0,42.79,6.0312,-0.029,0.023,-0.006,67.0,61.0,60.0,13.3,1504.9,351.1,-0.2,-0.7,2393.012,13.34,0.037,308.4
13,2022-07-12T10:30:00,2400.0,42.79,6.0312,-0.052,0.019,-0.02,67.0,61.0,62.0,13.3,1504.9,352.1,-0.3,-0.7,2393.073,13.34,0.055,290.1
13,2022-07-12T11:00:00,2400.0,42.79,6.0312,-0.024,0.009,0.016,64.0,59.0,62.0,13.3,1504.9,354.9,-0.2,-0.6,2392.969,13.34,0.025,290.6
13,2022-07-12T11:30:00,2400.0,42.79,6.0312,-0.034,0.029,-0.004,67.0,61.0,63.0,13.3,1504.9,355.8,-0.4,-0.7,2393.024,13.34,0.044,310.5
13,2022-07-12T12:00:00,2400.0,42.79,6.0312,-0.022,0.023,0.002,64.0,56.0,62.0,13.3,1504.9,354.5,-0.3,-0.6,2393.021,13.34,0.031,316.3
13,2022-07-12T13:00:00,2400.0,42.79,6.0312,-0.024,0.04,0.0,68.0,59.0,62.0,13.3,1504.9,359.3,-0.1,-0.6,2393.011,13.34,0.046,329.0
13,2022-07-12T13:30:00,2400.0,42.79,6.0312,-0.021,0.029,-0.021,66.0,60.0,61.0,13.3,1504.9,2.6,-0.4,-0.6,2393.016,13.34,0.035,324.1
13,2022-07-12T14:00:00,2400.0,42.79,6.0312,-0.052,0.032,-0.001,66.0,61.0,60.0,13.3,1504.9,1.1,-0.5,-0.7,2393.038,13.34,0.061,301.6
13,2022-07-12T14:30:00,2400.0,42.79,6.0312,-0.021,0.031,-0.02,65.0,63.0,62.0,13.3,1504.9,1.5,-0.2,-0.7,2393.061,13.34,0.037,325.9
13,2022-07-12T15:00:00,2400.0,42.79,6.0312,-0.029,0.036,-0.011,64.0,60.0,61.0,13.3,1504.9,0.6,-0.3,-0.6,2393.101,13.34,0.046,321.1
13,2022-07-12T15:30:00,2400.0,42.79,6.0312,-0.019,0.017,-0.025,65.0,59.0,60.0,13.3,1504.9,1.1,-0.4,-0.6,2393.064,13.34,0.025,311.8
13,2022-07-12T16:00:00,2400.0,42.79,6.0312,-0.027,0.039,-0.008,67.0,60.0,61.0,13.3,1504.9,3.3,-0.2,-0.7,2393.15,13.34,0.047,325.3
13,2022-07-12T16:30:00,2400.0,42.79,6.0312,-0.017,0.003,-0.016,67.0,63.0,62.0,13.3,1504.9,2.7,-0.3,-0.7,2393.152,13.34,0.017,280.0
13,2022-07-12T17:00:00,2400.0,42.79,6.0312,-0.009,0.039,-0.016,69.0,65.0,67.0,13.3,1504.9,4.2,-0.2,-0.6,2393.171,13.34,0.04,347.0
13,2022-07-12T17:30:00,2400.0,42.79,6.0312,-0.039,0.031,-0.017,71.0,65.0,66.0,13.3,1504.9,3.7,-0.3,-0.7,2393.203,13.34,0.049,308.5
13,2022-07-12T18:00:00,2400.0,42.79,6.0312,-0.002,0.017,-0.023,69.0,65.0,64.0,13.3,1504.9,3.0,-0.2,-0.6,2393.206,13.34,0.017,353.3
13,2022-07-12T18:30:00,2400.0,42.79,6.0312,-0.027,0.025,-0.021,72.0,69.0,69.0,13.3,1504.9,5.0,-0.4,-0.6,2393.198,13.34,0.036,312.8
13,2022-07-12T19:00:00,2400.0,42.79,6.0312,-0.022,0.033,-0.013,76.0,69.0,68.0,13.3,1504.9,3.2,0.0,-0.7,2393.229,13.34,0.039,326.3
13,2022-07-12T19:30:00,2400.0,42.79,6.0312,-0.024,0.022,-0.012,76.0,70.0,67.0,13.3,1504.9,1.4,0.0,-0.6,2393.242,13.34,0.032,312.5
13,2022-07-12T20:00:00,2400.0,42.79,6.0312,-0.01,0.047,-0.014,71.0,66.0,68.0,13.3,1504.9,3.8,-0.1,-0.5,2393.221,13.34,0.048,348.0
13,2022-07-12T20:30:00,2400.0,42.79,6.0312,-0.039,0.035,0.007,70.0,62.0,66.0,13.3,1504.9,3.1,-0.4,-0.6,2393.239,13.34,0.052,311.9
13,2022-07-12T21:00:00,2400.0,42.79,6.0312,-0.033,0.017,-0.022,70.0,65.0,64.0,13.3,1504.9,3.1,-0.3,-0.6,2393.183,13.34,0.037,297.3
13,2022-07-12T21:30:00,2400.0,42.79,6.0312,-0.026,0.052,0.003,69.0,63.0,63.0,13.3,1504.9,6.0,-0.3,-0.6,2393.215,13.34,0.058,333.4
13,2022-07-12T22:00:00,2400.0,42.79,6.0312,-0.014,0.058,-0.01,71.0,63.0,65.0,13.3,1504.9,5.3,-0.1,-0.5,2393.195,13.34,0.059,346.4
13,2022-07-12T22:30:00,2400.0,42.79,6.0312,-0.008,0.04,0.014,73.0,65.0,67.0,13.3,1504.9,3.2,-0.2,-0.5,2393.178,13.34,0.04,348.7
13,2022-07-12T23:00:00,2400.0,42.79,6.0312,0.001,0.039,-0.007,71.0,64.0,67.0,13.3,1504.9,4.0,-0.2,-0.6,2393.165,13.34,0.039,1.5
